ПОПОВИ ЛИВАДИ - вътрешен Measurements

Back to Overview

Timestamp Temperature Humidity
5/8/2021 7:10:44 AM 16,9 C 57.0%
5/8/2021 7:03:48 AM 16,7 C 57.0%
5/8/2021 6:35:27 AM 16,6 C 57.0%
5/8/2021 6:28:23 AM 16,9 C 57.0%
5/8/2021 6:21:27 AM 17,1 C 57.0%
5/8/2021 6:14:17 AM 16,6 C 57.0%
5/8/2021 6:07:13 AM 16,7 C 57.0%
5/8/2021 6:00:09 AM 16,7 C 57.0%
5/8/2021 5:53:13 AM 16,8 C 57.0%
5/8/2021 5:24:58 AM 17,5 C 56.0%
5/8/2021 5:18:02 AM 17,7 C 57.0%
5/8/2021 4:56:45 AM 16,5 C 58.0%
5/8/2021 4:49:42 AM 16,6 C 58.0%
5/8/2021 4:42:46 AM 16,7 C 58.0%
5/8/2021 4:28:31 AM 16,8 C 58.0%
5/8/2021 4:21:29 AM 17,0 C 57.0%
5/8/2021 4:14:27 AM 16,6 C 58.0%
5/8/2021 4:07:31 AM 16,1 C 58.0%
5/8/2021 4:00:18 AM 16,3 C 58.0%
5/8/2021 3:53:22 AM 16,5 C 58.0%
5/8/2021 3:25:05 AM 16,8 C 58.0%
5/8/2021 3:18:09 AM 16,5 C 58.0%
5/8/2021 2:56:53 AM 16,6 C 58.0%
5/8/2021 2:49:52 AM 16,7 C 58.0%
5/8/2021 2:42:56 AM 17,0 C 58.0%
5/8/2021 2:35:44 AM 16,6 C 58.0%
5/8/2021 2:28:48 AM 16,3 C 58.0%
5/8/2021 1:39:18 AM 16,3 C 59.0%
5/8/2021 1:32:22 AM 16,3 C 59.0%
5/8/2021 1:25:13 AM 16,4 C 58.0%
5/8/2021 1:18:10 AM 16,5 C 58.0%
5/8/2021 1:11:14 AM 16,8 C 58.0%
5/8/2021 12:49:58 AM 16,5 C 58.0%
5/8/2021 12:43:02 AM 16,6 C 58.0%
5/8/2021 12:35:52 AM 16,7 C 58.0%
5/8/2021 12:28:56 AM 16,7 C 58.0%
5/8/2021 12:14:43 AM 17,0 C 58.0%
5/8/2021 12:07:47 AM 16,7 C 59.0%